Home > Weather > Oxnard > Past weeks

Flag for U.S.A. Weather for the Past 2 Weeks in Oxnard, California, U.S.A.

Now
69 °F

Sunny.


Feels Like: 69 °F
Forecast: 53 / 77 °F
Wind: 6 mph from Northeast

Location: Oxnard Airport

Current Time: Feb 14, 2016 at 10:06:25 AM

Latest Report: Feb 14, 2016 at 8:51 AM


Visibility: 10 mi

Pressure: 30.05 "Hg

Humidity: 33%

Dew point: 39 °F

Location of OxnardLocation

Historic Weather in Oxnard — Graph

°F

Oxnard Temperature Yesterday

Maximum temperature yesterday: 66 °F (at 10:51 AM)
Minimum temperature yesterday: 49 °F (at 5:51 AM)
Average temperature yesterday: 57 °F

High & Low Weather Summary for the Past Weeks

 TemperatureHumidityPressure
High91 °F (Feb 9, 12:51 PM)93% (Jan 31, 7:51 AM)30.38 "Hg (Jan 31, 7:51 AM)
Low41 °F (Feb 1, 11:51 PM)9% (Feb 7, 1:51 PM)29.57 "Hg (Jan 31, 1:51 PM)
Average61 °F47%30.12 "Hg
* Reported Jan 30 8:03 AM — Feb 14 8:51 AM, Oxnard, Weather by CustomWeather, © 2016

Note: Actual official high and low records may vary slightly from our data, if they occured in-between our weather recording intervals... More about our weather records

Advertising

Oxnard Weather History for the Previous 24 Hours

 ConditionsComfort  
Time TempWeatherWind HumidityBarometerVisibility
8:51 AM
Sun, Feb 14
69 °FSunny.6 mph33%30.05 "Hg10 mi
7:51 AM61 °FSunny.9 mph42%30.04 "Hg10 mi
6:51 AM53 °FSunny.5 mph59%30.04 "Hg10 mi
5:51 AM50 °FClear.3 mph68%30.03 "Hg10 mi
4:51 AM52 °FClear.5 mph69%30.03 "Hg9 mi
3:51 AM52 °FClear.6 mph55%30.03 "Hg10 mi
2:51 AM52 °FClear.No wind61%30.03 "Hg10 mi
1:51 AM53 °FClear.6 mph77%30.05 "Hg10 mi
12:51 AM52 °FClear.No wind83%30.06 "Hg5 mi
11:51 PM
Sat, Feb 13
53 °FClear.No wind77%30.06 "Hg10 mi
10:51 PM55 °FClear.No wind80%30.06 "Hg9 mi
9:51 PM56 °FFog.5 mph87%30.06 "Hg6 mi
8:51 PM56 °FFog.5 mph87%30.06 "Hg5 mi
7:51 PM57 °FFog.5 mph87%30.05 "Hg6 mi
6:51 PM59 °FClear.No wind78%30.04 "Hg9 mi
5:51 PM60 °FClear.6 mph75%30.03 "Hg10 mi
4:51 PM63 °FSunny.N/A73%30.02 "Hg8 mi
3:51 PM64 °FSunny.3 mph70%30.03 "Hg10 mi
2:51 PM63 °FSunny.8 mph73%30.05 "Hg10 mi
1:51 PM64 °FSunny.10 mph70%30.07 "Hg10 mi
12:51 PM65 °FSunny.12 mph66%30.07 "Hg10 mi
11:51 AM65 °FSunny.6 mph66%30.06 "Hg8 mi
10:51 AM66 °FSunny.3 mph59%30.08 "Hg10 mi
Weather by CustomWeather, © 2016

See weather overviewHow to use our weather pages